Location: Krakow
(50.0830°N, 19.9170°E)
Time: 19:00:15
(UTC+01:00)

Tiros 1 despin weight - Visible Passes

Search period start: 30 January 2023 00:00
Search period end: 09 February 2023 00:00
Orbit: 589 x 636 km, 48.2° (Epoch: 29 January)

Date Brightness Start Highest point End Pass type
(mag) Time Alt. Az. Time Alt. Az. Time Alt. Az.
30 Jan ? 18:35:55 10° WSW 18:40:18 51° SSE 18:40:54 47° SE visible
30 Jan ? 20:17:05 10° W 20:17:51 15° W 20:17:51 15° W visible
31 Jan ? 17:10:01 10° SSW 17:13:58 30° SSE 17:17:52 10° E visible
31 Jan ? 18:50:31 10° WSW 18:54:59 63° S 18:55:08 63° SSE visible
31 Jan ? 20:31:50 10° W 20:32:05 11° W 20:32:05 11° W visible
01 Feb ? 17:24:15 10° SW 17:28:32 42° SSE 17:32:24 12° E visible
01 Feb ? 19:05:13 10° W 19:09:21 66° SSW 19:09:21 66° SSW visible
02 Feb ? 17:38:43 10° WSW 17:43:10 55° SSE 17:46:36 16° E visible
02 Feb ? 19:19:57 10° W 19:23:33 53° WSW 19:23:33 53° WSW visible
03 Feb ? 17:53:21 10° WSW 17:57:52 66° S 18:00:48 21° E visible
03 Feb ? 19:34:41 10° W 19:37:44 40° WSW 19:37:44 40° WSW visible
04 Feb ? 18:08:03 10° W 18:12:35 71° S 18:15:00 26° E visible
04 Feb ? 19:49:27 10° W 19:51:57 30° WSW 19:51:57 30° WSW visible
05 Feb ? 18:22:46 10° W 18:27:17 68° S 18:29:13 33° ESE visible
05 Feb ? 20:04:17 10° W 20:06:10 22° WSW 20:06:10 22° WSW visible
06 Feb ? 18:37:30 10° W 18:41:58 58° SSW 18:43:28 37° SE visible
06 Feb ? 20:19:14 10° W 20:20:25 16° WSW 20:20:25 16° WSW visible
07 Feb ? 17:10:50 10° W 17:15:24 71° S 17:19:53 10° E visible
07 Feb ? 18:52:16 10° W 18:56:36 45° SSW 18:57:46 36° SSE visible
07 Feb ? 20:34:37 10° WSW 20:34:44 10° WSW 20:34:44 10° WSW visible
08 Feb ? 17:25:33 10° W 17:30:06 65° S 17:34:33 10° ESE visible
08 Feb ? 19:07:06 10° W 19:11:08 32° SSW 19:12:08 29° S visible
